Tiempo atmosférico en la estación meteorológica de Tejeda, Cruz de Tejeda, Las Palmas (1514 m.)



Fecha
DESCASC
Temp. máxima en grados centígrados (hora)
DESCASC
Temp. mínima en grados centígrados (hora)
DESCASC
Temp. media en grados centígrados
DESCASC
Racha de viento máxima en m/sg (hora)
DESCASC
Velocidad máxima media en intervalos de 10 minutos(hora)
DESCASC
Precipitaciones diarias en mm
DESCASC
Precipitaciones de 00:00 a 06:00 en mm
DESCASC
Precipitaciones de 06:00 a 12:00 en mm
DESCASC
Precipitaciones de 12:00 a 18:00 en mm
DESCASC
Precipitaciones de 18:00 a 24:00 en mm
DESCASC
21-01-2021 15.9 (14:00) 9.4 (00:00) 12.6 6.67 (01:10) 5.28 (01:00) 0 0 0 0 0
20-01-2021 17.5 (17:30) 10.2 (00:00) 13.8 6.94 (13:50) 4.72 (22:50) 0 0 0 0 0
19-01-2021 13.4 (14:20) 7.4 (00:00) 10.4 5.83 (15:20) 3.33 (17:20) 0 0 0 0 0
18-01-2021 14.1 (15:00) 7.5 (00:00) 10.8 5 (15:30) 2.5 (09:10) 0 0 0 0 0
17-01-2021 14.3 (11:50) 2.7 (00:00) 8.5 7.78 (03:50) 5.83 (01:50) 0 0 0 0 0
16-01-2021 7.2 (15:10) 2.7 (00:00) 4.9 14.72 (00:20) 5.56 (07:30) 2.4 1.8 0.6 0 0
15-01-2021 4.8 (15:10) 2.9 (00:00) 3.9 16.67 (01:30) 8.61 (03:00) 23.2 8.4 4 3.8 7
14-01-2021 4.6 (02:00) 2.9 (22:50) 3.8 18.06 (20:20) 8.61 (22:50) 6.2 0.4 0.6 0.8 4.4
13-01-2021 4.7 (08:10) 3.1 (00:00) 3.9 17.22 (14:40) 6.39 (06:30) 5.4 1.6 2.4 1.2 0.2
12-01-2021 4.9 (16:30) 2.8 (00:00) 3.9 12.5 (22:40) 5.83 (23:50) 11 2.6 3.4 4 1
11-01-2021 4.4 (18:50) 2.1 (00:00) 3.3 13.61 (22:10) 6.11 (19:10) 25.6 11.2 1 8.6 4.8
10-01-2021 4.8 (14:10) 2.7 (01:10) 3.8 10.83 (18:50) 3.33 (13:40) 32.6 7.4 15 2.8 7.4
09-01-2021 4.4 (13:00) 2 (00:00) 3.2 11.11 (20:20) 3.61 (06:00) 17.4 6.8 2.2 3.8 4.6
08-01-2021 9.4 (00:00) 3.4 (00:00) 6.4 25.83 (00:10) 10.56 (00:20) 34.6 5.8 7 13.2 8.6
07-01-2021 11.1 (11:10) 9 (00:00) 10.1 30.83 (14:50) 14.17 (14:50) 74.2 3.8 28.2 23.6 18.6
06-01-2021 12.1 (14:50) 8.2 (00:00) 10.2 25.56 (15:00) 11.11 (15:00) 26.4 1 12.6 12.6 0.2
05-01-2021 11.4 (13:10) 7.7 (00:00) 9.5 11.67 (02:00) 6.67 (13:30) 0.2 0 0 0 0.2
04-01-2021 13.5 (11:30) 6.4 (00:00) 10 23.33 (19:00) 8.61 (19:30) 0 0 0 0 0
03-01-2021 8.9 (16:10) 2.8 (00:00) 5.8 5.28 (00:10) 3.33 (06:30) 0 0 0 0 0
02-01-2021 6.5 (14:00) 3.7 (00:00) 5.1 7.22 (00:10) 4.72 (09:00) 0.8 0.4 0.4 0 0
01-01-2021 6.2 (12:40) 3.6 (00:00) 4.9 16.11 (01:20) 8.06 (08:20) 4 0.8 2.2 0.4 0.6
31-12-2020 11.1 (15:10) 3.9 (00:00) 7.5 15.83 (23:50) 8.06 (23:50) 0.6 0 0 0 0.6
30-12-2020 11.7 (11:30) 5.6 (00:00) 8.6 4.72 (10:20) 2.22 (05:00) 0 0 0 0 0
29-12-2020 13 (15:30) 7 (00:00) 10 4.72 (15:30) 2.22 (11:50) 0 0 0 0 0
28-12-2020 14.9 (15:00) 8.3 (00:00) 11.6 7.78 (08:00) 3.89 (06:10) 0 0 0 0 0
27-12-2020 16.7 (15:40) 8.8 (00:00) 12.8 7.78 (22:00) 3.61 (21:40) 0 0 0 0 0
26-12-2020 15.3 (13:20) 9.3 (00:00) 12.3 5.83 (12:50) 2.78 (15:30) 0 0 0 0 0
25-12-2020 15 (15:30) 6.5 (00:00) 10.8 10.56 (12:50) 3.33 (12:50) 0 0 0 0 0
24-12-2020 10.1 (13:50) 5.8 (00:00) 8 16.67 (00:20) 6.39 (00:50) 0 0 0 0 0
23-12-2020 13.5 (14:30) 6.9 (00:00) 10.2 15.56 (22:40) 5.28 (22:00) 0 0 0 0 0

Gráficas

Temp. máximas Temp. mínimas Temp. medias Precipitaciones Rachas de viento máximas Velocidades máximas media en intervalos de 10 minutos

Datos horarios

Fecha y hora oficial Temperatura (ºC) Velocidad del viento (km/h) Dirección del viento Racha (km/h) Dirección de racha Precipitación (mm) Presión (hPa) Tendencia (hPa) Humedad (%)
2021-01-21 23:00:00 12.6 9 Nordeste 22 Nordeste 0 -- -- 63
2021-01-21 22:00:00 13.1 9 Nordeste 15 Nordeste 0 -- -- 59
2021-01-21 21:00:00 13.6 7 Noroeste 18 Noroeste 0 -- -- 50
2021-01-21 20:00:00 14.5 7 Noroeste 15 Noroeste 0 -- -- 47
2021-01-21 19:00:00 12.3 3 Sudeste 11 Norte 0 -- -- 63
2021-01-21 18:00:00 13.6 5 Norte 10 Norte 0 -- -- 59
2021-01-21 17:00:00 14.6 2 Nordeste 11 Este 0 -- -- 74
2021-01-21 16:00:00 15.5 3 Nordeste 16 Este 0 -- -- 58
2021-01-21 15:00:00 15.1 8 Este 19 Este 0 -- -- 70
2021-01-21 14:00:00 15.9 8 Este 15 Este 0 -- -- 55
2021-01-21 13:00:00 15.3 5 Nordeste 21 Este 0 -- -- 43
2021-01-21 12:00:00 15.7 5 Nordeste 17 Este 0 -- -- 28
2021-01-21 11:00:00 15.5 5 Nordeste 15 Este 0 -- -- 28
2021-01-21 10:00:00 15.3 3 Nordeste 10 Nordeste 0 -- -- 24
2021-01-21 09:00:00 14 2 Nordeste 19 Nordeste 0 -- -- 27
2021-01-21 08:00:00 13.3 15 Norte 20 Norte 0 -- -- 19
2021-01-21 07:00:00 12.6 9 Norte 15 Norte 0 -- -- 20
2021-01-21 06:00:00 9.5 3 Norte 9 Norte 0 -- -- 80
2021-01-21 05:00:00 10.3 8 Norte 14 Norte 0 -- -- 77
2021-01-21 04:00:00 9.6 5 Norte 14 Norte 0 -- -- 76
2021-01-21 03:00:00 10.8 3 Nordeste 21 Nordeste 0 -- -- 69
2021-01-21 02:00:00 11 12 Nordeste 24 Norte 0 -- -- 67
2021-01-21 01:00:00 11.5 19 Nordeste 23 Nordeste 0 -- -- 65
2021-01-21 00:00:00 11.1 6 Nordeste 22 Nordeste 0 -- -- 42
2021-01-20 23:00:00 12.3 12 Nordeste 21 Norte 0 -- -- 30
2021-01-20 22:00:00 12.9 5 Nordeste 15 Este 0 -- -- 28
2021-01-20 21:00:00 12.5 4 Norte 13 Nordeste 0 -- -- 22
2021-01-20 20:00:00 12.7 5 Norte 9 Norte 0 -- -- 16
2021-01-20 19:00:00 13.8 2 Norte 10 Norte 0 -- -- 14
2021-01-20 18:00:00 14.4 3 Sudeste 10 Sudoeste 0 -- -- 23
2021-01-20 17:00:00 15.8 4 Sudoeste 12 Sur 0 -- -- 36
2021-01-20 16:00:00 14.5 8 Sudoeste 18 Sudoeste 0 -- -- 30
2021-01-20 15:00:00 14.4 11 Sudoeste 19 Sudoeste 0 -- -- 15
2021-01-20 14:00:00 13.3 14 Sudoeste 25 Sudoeste 0 -- -- 24
2021-01-20 13:00:00 14.9 10 Sudoeste 20 Sudoeste 0 -- -- 11
2021-01-20 12:00:00 14.9 12 Sudoeste 19 Sudoeste 0 -- -- 10
2021-01-20 11:00:00 13.7 13 Sudoeste 19 Sudoeste 0 -- -- 6
2021-01-20 10:00:00 12.9 10 Sudoeste 17 Sudoeste 0 -- -- 10
2021-01-20 09:00:00 12.5 8 Oeste 24 Oeste 0 -- -- 9
2021-01-20 08:00:00 11.6 12 Oeste 19 Sudoeste 0 -- -- 7
2021-01-20 07:00:00 10.4 8 Sudoeste 15 Sudoeste 0 -- -- 9
2021-01-20 06:00:00 10.6 8 Sudoeste 16 Sudoeste 0 -- -- 10
2021-01-20 05:00:00 11.2 8 Sudoeste 13 Oeste 0 -- -- 10
2021-01-20 04:00:00 11.8 7 Oeste 13 Oeste 0 -- -- 9
2021-01-20 03:00:00 12.1 9 Oeste 17 Oeste 0 -- -- 9
2021-01-20 02:00:00 11.3 6 Sudoeste 14 Sudoeste 0 -- -- 12
2021-01-20 01:00:00 11.3 8 Oeste 13 Sudoeste 0 -- -- 12
2021-01-20 00:00:00 11.2 5 Sudoeste 9 Sudoeste 0 -- -- 14
2021-01-19 23:00:00 10.5 5 Oeste 9 Oeste 0 -- -- 16
2021-01-19 22:00:00 11.4 4 Oeste 8 Oeste 0 -- -- 12
2021-01-19 21:00:00 10.2 0 Calma 6 Norte 0 -- -- 12
2021-01-19 20:00:00 10.6 3 Sudoeste 5 Oeste 0 -- -- 15
2021-01-19 19:00:00 10.4 0 Calma 4 Sudoeste 0 -- -- 19
2021-01-19 18:00:00 9.8 5 Sudoeste 19 Sudoeste 0 -- -- 77
2021-01-19 17:00:00 11.7 9 Sudoeste 18 Sudoeste 0 -- -- 53
2021-01-19 16:00:00 13 10 Sudoeste 21 Sudoeste 0 -- -- 46
2021-01-19 15:00:00 12.3 12 Sudoeste 19 Sudoeste 0 -- -- 47
2021-01-19 14:00:00 12.9 10 Sudoeste 17 Sudoeste 0 -- -- 27
2021-01-19 13:00:00 12.4 9 Sudoeste 15 Sudoeste 0 -- -- 23
2021-01-19 12:00:00 12.2 11 Sudoeste 16 Sudoeste 0 -- -- 17
2021-01-19 11:00:00 11.7 7 Sudoeste 13 Sudoeste 0 -- -- 17
2021-01-19 10:00:00 11.4 9 Sudoeste 12 Sudoeste 0 -- -- 13
2021-01-19 09:00:00 10.9 5 Oeste 12 Sudoeste 0 -- -- 14
2021-01-19 08:00:00 9.4 6 Oeste 10 Oeste 0 -- -- 12
2021-01-19 07:00:00 9.3 8 Oeste 11 Sudoeste 0 -- -- 13
2021-01-19 06:00:00 10.1 5 Oeste 12 Sudoeste 0 -- -- 11
2021-01-19 05:00:00 9.9 5 Oeste 10 Oeste 0 -- -- 11
2021-01-19 04:00:00 9.8 6 Oeste 10 Oeste 0 -- -- 12
2021-01-19 03:00:00 8.8 4 Sudoeste 9 Oeste 0 -- -- 15
2021-01-19 02:00:00 8.9 4 Oeste 7 Oeste 0 -- -- 17
2021-01-19 01:00:00 8.4 0 Calma 5 Oeste 0 -- -- 19
2021-01-19 00:00:00 7.7 0 Calma 4 Norte 0 -- -- 27
2021-01-18 23:00:00 8.3 0 Calma 4 Oeste 0 -- -- 23
2021-01-18 22:00:00 8.6 2 Sudoeste 6 Oeste 0 -- -- 32
2021-01-18 21:00:00 8.6 4 Oeste 8 Oeste 0 -- -- 39
2021-01-18 20:00:00 8.6 4 Sudoeste 6 Sudoeste 0 -- -- 67
2021-01-18 19:00:00 8.8 0 Calma 6 Sudoeste 0 -- -- 71
2021-01-18 18:00:00 10.3 5 Sudoeste 12 Sur 0 -- -- 70
2021-01-18 17:00:00 12.8 6 Sudoeste 13 Sudoeste 0 -- -- 55
2021-01-18 16:00:00 12.9 8 Sudoeste 18 Sudoeste 0 -- -- 51
2021-01-18 15:00:00 14.1 6 Sudoeste 15 Sudoeste 0 -- -- 28
2021-01-18 14:00:00 13 7 Sudoeste 15 Sudoeste 0 -- -- 26
2021-01-18 13:00:00 12.9 5 Sudoeste 12 Sudoeste 0 -- -- 19
2021-01-18 12:00:00 12.8 4 Sur 11 Sudoeste 0 -- -- 35
2021-01-18 11:00:00 12 4 Sudoeste 8 Sudoeste 0 -- -- 13
2021-01-18 10:00:00 12.2 4 Sudoeste 12 Oeste 0 -- -- 12
2021-01-18 09:00:00 10.7 7 Oeste 14 Oeste 0 -- -- 13
2021-01-18 08:00:00 8.9 8 Oeste 13 Oeste 0 -- -- 17
2021-01-18 07:00:00 9.2 6 Oeste 11 Oeste 0 -- -- 16
2021-01-18 06:00:00 7.5 0 Calma 8 Sudeste 0 -- -- 18
2021-01-18 05:00:00 8.7 3 Sudoeste 7 Sur 0 -- -- 16
2021-01-18 04:00:00 8.4 2 Oeste 6 Sudoeste 0 -- -- 18
2021-01-18 03:00:00 8.8 0 Calma 9 Oeste 0 -- -- 18
2021-01-18 02:00:00 9.8 7 Oeste 12 Oeste 0 -- -- 13
2021-01-18 01:00:00 9.5 3 Sudoeste 6 Sudeste 0 -- -- 12
2021-01-18 00:00:00 8.6 0 Calma 8 Oeste 0 -- -- 17
2021-01-17 23:00:00 9 7 Sudoeste 12 Sudoeste 0 -- -- 24
2021-01-17 22:00:00 7.9 2 Norte 5 Nordeste 0 -- -- 42
2021-01-17 21:00:00 7.8 3 Oeste 4 Este 0 -- -- 18
2021-01-17 20:00:00 8.2 0 Calma 11 Oeste 0 -- -- 15
2021-01-17 19:00:00 9.6 8 Oeste 14 Sudoeste 0 -- -- 24
2021-01-17 18:00:00 10.9 9 Oeste 14 Sudoeste 0 -- -- 48
2021-01-17 17:00:00 12.9 7 Sudoeste 15 Sudoeste 0 -- -- 68
2021-01-17 16:00:00 13 10 Sudoeste 17 Sudoeste 0 -- -- 68
2021-01-17 15:00:00 13 10 Sudoeste 16 Sudoeste 0 -- -- 62
2021-01-17 14:00:00 13.7 6 Sudoeste 15 Sudoeste 0 -- -- 46
2021-01-17 13:00:00 14.2 6 Sudoeste 12 Sur 0 -- -- 25
2021-01-17 12:00:00 14.3 4 Sudoeste 10 Sudoeste 0 -- -- 18
2021-01-17 11:00:00 12 2 Oeste 6 Sudoeste 0 -- -- 27
2021-01-17 10:00:00 12.4 2 Sudoeste 11 Nordeste 0 -- -- 54
2021-01-17 09:00:00 9 6 Nordeste 20 Nordeste 0 -- -- 29
2021-01-17 08:00:00 8.4 16 Nordeste 23 Norte 0 -- -- 23
2021-01-17 07:00:00 8.6 9 Nordeste 20 Norte 0 -- -- 24
2021-01-17 06:00:00 8.5 16 Nordeste 24 Nordeste 0 -- -- 21
2021-01-17 05:00:00 3 4 Nordeste 21 Nordeste 0 -- -- 90
2021-01-17 04:00:00 5 0 Calma 28 Nordeste 0 -- -- 64
2021-01-17 03:00:00 3.6 0 Calma 28 Norte 0 -- -- 87
2021-01-17 02:00:00 6.7 18 Nordeste 28 Nordeste 0 -- -- 54
2021-01-17 01:00:00 7.9 13 Nordeste 23 Norte 0 -- -- 42
2021-01-17 00:00:00 5.3 3 Nordeste 19 Norte 0 -- -- 54
2021-01-16 23:00:00 2.8 0 Calma 18 Norte 0 -- -- 98
2021-01-16 22:00:00 6.2 13 Nordeste 22 Nordeste 0 -- -- 41
2021-01-16 21:00:00 3.4 3 Nordeste 13 Nordeste 0 -- -- 100
2021-01-16 20:00:00 4.3 10 Nordeste 18 Norte 0 -- -- 100
2021-01-16 19:00:00 4.6 8 Nordeste 21 Nordeste 0 -- -- 100
2021-01-16 18:00:00 5.2 3 Nordeste 22 Nordeste 0 -- -- 98
2021-01-16 17:00:00 6.1 6 Nordeste 24 Norte 0 -- -- 96
2021-01-16 16:00:00 6.9 4 Nordeste 19 Nordeste 0 -- -- 94
2021-01-16 15:00:00 6.7 6 Nordeste 21 Nordeste 0 -- -- 93
2021-01-16 14:00:00 6.7 4 Nordeste 22 Nordeste 0 -- -- 98
2021-01-16 13:00:00 6.4 7 Nordeste 35 Nordeste 0 -- -- 100
2021-01-16 12:00:00 5.9 5 Nordeste 32 Nordeste 0 -- -- 100
2021-01-16 11:00:00 5.3 4 Nordeste 30 Nordeste 0 -- -- 100
2021-01-16 10:00:00 4.1 8 Nordeste 39 Nordeste 0.2 -- -- 100
2021-01-16 09:00:00 3.5 9 Nordeste 40 Nordeste 0.2 -- -- 100
2021-01-16 08:00:00 3.9 11 Nordeste 42 Nordeste 0.2 -- -- 100
2021-01-16 07:00:00 3.5 8 Nordeste 25 Nordeste 0 -- -- 100
2021-01-16 06:00:00 3.2 5 Nordeste 32 Nordeste 0 -- -- 100
2021-01-16 05:00:00 2.9 5 Nordeste 34 Nordeste 0 -- -- 100
2021-01-16 04:00:00 3.3 8 Nordeste 36 Nordeste 0.2 -- -- 100
2021-01-16 03:00:00 3.9 7 Nordeste 41 Nordeste 0.2 -- -- 100
2021-01-16 02:00:00 3.4 7 Nordeste 42 Nordeste 0.4 -- -- 100
2021-01-16 01:00:00 3.1 12 Nordeste 53 Nordeste 1 -- -- 100
2021-01-16 00:00:00 3.5 9 Nordeste 50 Nordeste 1.4 -- -- 100
2021-01-15 23:00:00 3.7 19 Nordeste 53 Norte 1.4 -- -- 100
2021-01-15 22:00:00 4.4 15 Nordeste 56 Nordeste 1.4 -- -- 100
2021-01-15 21:00:00 3.4 14 Nordeste 56 Nordeste 0.8 -- -- 100
2021-01-15 20:00:00 3.5 9 Nordeste 48 Nordeste 0.8 -- -- 100
2021-01-15 19:00:00 4.2 10 Nordeste 52 Nordeste 1.2 -- -- 100
2021-01-15 18:00:00 4.5 9 Nordeste 43 Nordeste 0.6 -- -- 100
2021-01-15 17:00:00 3.9 10 Nordeste 51 Nordeste 0.6 -- -- 100
2021-01-15 16:00:00 4.3 8 Nordeste 45 Este 0.8 -- -- 100
2021-01-15 15:00:00 4.7 10 Nordeste 45 Nordeste 0 -- -- 100
2021-01-15 14:00:00 4.1 9 Nordeste 47 Nordeste 0.8 -- -- 100
2021-01-15 13:00:00 4.5 9 Nordeste 51 Nordeste 1 -- -- 100
2021-01-15 12:00:00 4.2 11 Nordeste 51 Nordeste 0.6 -- -- 100
2021-01-15 11:00:00 3.9 12 Nordeste 45 Nordeste 0.8 -- -- 100
2021-01-15 10:00:00 3.5 10 Nordeste 51 Nordeste 1 -- -- 100
2021-01-15 09:00:00 3.4 10 Nordeste 52 Nordeste 0.6 -- -- 100
2021-01-15 08:00:00 3.6 13 Nordeste 51 Nordeste 0.6 -- -- 100
2021-01-15 07:00:00 3.8 8 Nordeste 55 Nordeste 0.4 -- -- 100
2021-01-15 06:00:00 3.4 12 Nordeste 48 Nordeste 0.8 -- -- 100
2021-01-15 05:00:00 3.4 10 Nordeste 51 Nordeste 0.6 -- -- 100
2021-01-15 04:00:00 3 11 Nordeste 55 Nordeste 0.2 -- -- 100
2021-01-15 03:00:00 3 31 Nordeste 57 Nordeste 2.2 -- -- 100
2021-01-15 02:00:00 4.3 10 Nordeste 60 Nordeste 1.6 -- -- 100
2021-01-15 01:00:00 4.3 17 Nordeste 59 Nordeste 3 -- -- 100
2021-01-15 00:00:00 4.3 17 Nordeste 58 Nordeste 0 -- -- 100
2021-01-14 23:00:00 2.9 25 Nordeste 58 Nordeste 0.6 -- -- 100
2021-01-14 22:00:00 3.4 12 Nordeste 52 Norte 0.8 -- -- 100
2021-01-14 21:00:00 3.5 12 Nordeste 65 Nordeste 1.8 -- -- 100
2021-01-14 20:00:00 4.2 16 Nordeste 49 Nordeste 0.8 -- -- 100
2021-01-14 19:00:00 4 9 Nordeste 44 Este 0.4 -- -- 100
2021-01-14 18:00:00 4.4 13 Nordeste 46 Este 0 -- -- 100
2021-01-14 17:00:00 3.8 13 Este 41 Nordeste 0.4 -- -- 100
2021-01-14 16:00:00 4.6 9 Nordeste 43 Nordeste 0 -- -- 100
2021-01-14 15:00:00 4.2 9 Nordeste 36 Este 0.2 -- -- 100
2021-01-14 14:00:00 4.4 6 Nordeste 24 Nordeste 0.2 -- -- 100
2021-01-14 13:00:00 4.4 3 Nordeste 32 Este 0 -- -- 100
2021-01-14 12:00:00 3.9 7 Nordeste 28 Nordeste 0 -- -- 100
2021-01-14 11:00:00 3.9 6 Nordeste 36 Nordeste 0.2 -- -- 100
2021-01-14 10:00:00 4.2 8 Nordeste 36 Este 0.2 -- -- 100
2021-01-14 09:00:00 3.8 4 Nordeste 34 Nordeste 0 -- -- 100
2021-01-14 08:00:00 3.8 6 Nordeste 37 Nordeste 0.2 -- -- 100
2021-01-14 07:00:00 3.5 6 Nordeste 32 Nordeste 0 -- -- 100
2021-01-14 06:00:00 3.9 5 Nordeste 28 Nordeste 0 -- -- 100
2021-01-14 05:00:00 4 9 Nordeste 31 Nordeste 0 -- -- 100
2021-01-14 04:00:00 3.3 7 Nordeste 34 Nordeste 0.2 -- -- 100
2021-01-14 03:00:00 4.3 8 Nordeste 36 Nordeste 0 -- -- 100
2021-01-14 02:00:00 4.6 9 Nordeste 35 Nordeste 0 -- -- 100
2021-01-14 01:00:00 4.4 4 Nordeste 23 Norte 0.2 -- -- 100
2021-01-14 00:00:00 4.1 7 Nordeste 30 Nordeste 0 -- -- 100
2021-01-13 23:00:00 3.9 6 Nordeste 35 Norte 0 -- -- 100
2021-01-13 22:00:00 4.2 8 Nordeste 38 Nordeste 0.2 -- -- 100
2021-01-13 21:00:00 4.4 10 Nordeste 43 Nordeste 0 -- -- 100
2021-01-13 20:00:00 3.7 11 Nordeste 41 Nordeste 0 -- -- 100
2021-01-13 19:00:00 3.4 9 Nordeste 42 Norte 0 -- -- 100
2021-01-13 18:00:00 3.9 13 Nordeste 48 Nordeste 0 -- -- 100
2021-01-13 17:00:00 4.2 11 Nordeste 45 Nordeste 0 -- -- 100
2021-01-13 16:00:00 4.3 12 Nordeste 51 Nordeste 0.2 -- -- 100
2021-01-13 15:00:00 4.2 10 Nordeste 62 Nordeste 0.2 -- -- 100
2021-01-13 14:00:00 4.3 10 Nordeste 48 Nordeste 0.4 -- -- 100
2021-01-13 13:00:00 4.3 14 Este 50 Este 0.4 -- -- 100
2021-01-13 12:00:00 4.3 11 Nordeste 44 Este 0.4 -- -- 100
2021-01-13 11:00:00 4.1 14 Este 44 Este 0.4 -- -- 100
2021-01-13 10:00:00 4.4 7 Nordeste 39 Nordeste 0.4 -- -- 100
2021-01-13 09:00:00 4.2 19 Este 49 Este 0.4 -- -- 100
2021-01-13 08:00:00 4.5 13 Nordeste 48 Nordeste 0.4 -- -- 100
2021-01-13 07:00:00 4.1 14 Este 49 Este 0.4 -- -- 100
2021-01-13 06:00:00 4.2 12 Nordeste 48 Este 0.4 -- -- 100
2021-01-13 05:00:00 4.4 8 Nordeste 33 Nordeste 0.4 -- -- 100
2021-01-13 04:00:00 4.2 12 Nordeste 41 Este 0.2 -- -- 100
2021-01-13 03:00:00 4 14 Este 42 Este 0.2 -- -- 100
2021-01-13 02:00:00 4.2 14 Este 41 Norte 0.4 -- -- 100
2021-01-13 01:00:00 4.1 14 Nordeste 42 Nordeste 0 -- -- 100
2021-01-13 00:00:00 4 6 Nordeste 45 Norte 0.2 -- -- 100
2021-01-12 23:00:00 4.3 10 Nordeste 45 Este 0.2 -- -- 100
2021-01-12 22:00:00 4.5 9 Nordeste 37 Norte 0.4 -- -- 100
2021-01-12 21:00:00 3.9 7 Nordeste 39 Nordeste 0 -- -- 100
2021-01-12 20:00:00 3.7 10 Nordeste 35 Nordeste 0 -- -- 100
2021-01-12 19:00:00 3.9 10 Este 29 Este 0.2 -- -- 100
2021-01-12 18:00:00 4.1 9 Este 31 Norte 0 -- -- 100
2021-01-12 17:00:00 4.3 12 Este 31 Este 0 -- -- 100
2021-01-12 16:00:00 4.6 9 Este 32 Este 0 -- -- 100
2021-01-12 15:00:00 4.5 14 Este 34 Este 0.2 -- -- 100
2021-01-12 14:00:00 3.7 10 Este 35 Este 0.8 -- -- 100
2021-01-12 13:00:00 4.7 6 Este 20 Este 3 -- -- 100
2021-01-12 12:00:00 4.2 6 Este 29 Este 0.2 -- -- 100
2021-01-12 11:00:00 3.5 5 Nordeste 25 Este 0 -- -- 100
2021-01-12 10:00:00 3.1 9 Nordeste 34 Este 0.8 -- -- 100
2021-01-12 09:00:00 3.5 5 Nordeste 29 Este 0.6 -- -- 100
2021-01-12 08:00:00 3 8 Este 24 Nordeste 0.2 -- -- 100
2021-01-12 07:00:00 3.3 9 Este 30 Este 1.6 -- -- 100
2021-01-12 06:00:00 3.8 10 Este 31 Este 0.2 -- -- 100
2021-01-12 05:00:00 3.3 16 Este 30 Este 2 -- -- 100
2021-01-12 04:00:00 2.9 3 Nordeste 27 Este 0 -- -- 100
2021-01-12 03:00:00 3.2 11 Nordeste 33 Este 0 -- -- 100
2021-01-12 02:00:00 3 7 Nordeste 32 Nordeste 0.2 -- -- 100
2021-01-12 01:00:00 3.3 10 Este 32 Este 0.2 -- -- 100
2021-01-12 00:00:00 3.6 11 Este 34 Este 0 -- -- 100
2021-01-11 23:00:00 3.6 11 Este 49 Este 0.6 -- -- 100
2021-01-11 22:00:00 3.7 15 Este 40 Este 0.6 -- -- 100
2021-01-11 21:00:00 3.6 18 Este 43 Este 0.6 -- -- 100
2021-01-11 20:00:00 3.3 18 Este 49 Este 1 -- -- 100
2021-01-11 19:00:00 4.4 19 Este 36 Este 2 -- -- 100
2021-01-11 18:00:00 3.9 6 Nordeste 38 Este 1.4 -- -- 100
2021-01-11 17:00:00 3.6 8 Nordeste 31 Este 0.8 -- -- 100
2021-01-11 16:00:00 3.5 8 Nordeste 35 Este 2 -- -- 100
2021-01-11 15:00:00 4.3 9 Este 26 Nordeste 2.8 -- -- 100
2021-01-11 14:00:00 3.7 11 Este 37 Este 0.6 -- -- 100
2021-01-11 13:00:00 3.9 6 Este 31 Este 1 -- -- 100
2021-01-11 12:00:00 3.5 7 Nordeste 41 Este 0 -- -- 100
2021-01-11 11:00:00 3.5 9 Nordeste 24 Este 1 -- -- 100
2021-01-11 10:00:00 2.9 5 Nordeste 29 Este 0 -- -- 100
2021-01-11 09:00:00 2.6 8 Nordeste 31 Este 0 -- -- 100
2021-01-11 08:00:00 2.3 8 Nordeste 28 Norte 0 -- -- 100
2021-01-11 07:00:00 2.4 4 Nordeste 28 Nordeste 0 -- -- 100
2021-01-11 06:00:00 2.4 4 Nordeste 31 Este 0 -- -- 100
2021-01-11 05:00:00 2.6 6 Nordeste 28 Norte 0 -- -- 100
2021-01-11 04:00:00 3.1 4 Nordeste 19 Nordeste 0.2 -- -- 100
2021-01-11 03:00:00 3.7 3 Norte 31 Este 2.2 -- -- 100
2021-01-11 02:00:00 3.8 7 Oeste 21 Este 4 -- -- 100
2021-01-11 01:00:00 4.3 7 Nordeste 22 Este 4.8 -- -- 100
2021-01-11 00:00:00 3.4 6 Oeste 27 Oeste 2.6 -- -- 100
2021-01-10 23:00:00 4.5 5 Nordeste 20 Oeste 4.4 -- -- 100
2021-01-10 22:00:00 3.8 6 Sudoeste 28 Sudoeste 0.2 -- -- 98
2021-01-10 21:00:00 3.7 6 Oeste 28 Oeste 0 -- -- 98
2021-01-10 20:00:00 3.6 6 Sudoeste 30 Sudoeste 0 -- -- 100
2021-01-10 19:00:00 3.5 8 Sur 39 Sudoeste 0.2 -- -- 100
2021-01-10 18:00:00 3.8 7 Sudoeste 34 Sur 0.8 -- -- 100
2021-01-10 17:00:00 4.3 8 Sudoeste 33 Sudoeste 0.2 -- -- 100
2021-01-10 16:00:00 4.6 6 Oeste 28 Sudoeste 0 -- -- 100
2021-01-10 15:00:00 3.7 7 Sudoeste 32 Sudoeste 1.4 -- -- 100
2021-01-10 14:00:00 4.6 5 Sudoeste 27 Sudoeste 0.4 -- -- 100
2021-01-10 13:00:00 4.6 8 Oeste 33 Sudoeste 0 -- -- 100
2021-01-10 12:00:00 4.3 6 Norte 22 Sudoeste 1.8 -- -- 100
2021-01-10 11:00:00 4 4 Oeste 21 Oeste 1.6 -- -- 100
2021-01-10 10:00:00 3.8 5 Sur 30 Sudoeste 2 -- -- 100
2021-01-10 09:00:00 3.3 6 Sudoeste 27 Sudoeste 1.4 -- -- 100
2021-01-10 08:00:00 3.3 9 Sudoeste 25 Sur 5 -- -- 100
2021-01-10 07:00:00 3.4 7 Sudoeste 39 Oeste 3.2 -- -- 100
2021-01-10 06:00:00 3.3 10 Sudoeste 35 Sudoeste 2 -- -- 100
2021-01-10 05:00:00 3.5 7 Sur 29 Norte 2.8 -- -- 100
2021-01-10 04:00:00 3.3 6 Sur 24 Sur 1.4 -- -- 100
2021-01-10 03:00:00 2.9 5 Oeste 26 Oeste 0.4 -- -- 100
2021-01-10 02:00:00 2.7 8 Sudoeste 23 Sudoeste 0.4 -- -- 100
2021-01-10 01:00:00 2.8 5 Norte 22 Nordeste 0.4 -- -- 100
2021-01-10 00:00:00 2.9 5 Nordeste 24 Este 1 -- -- 100
2021-01-09 23:00:00 3 6 Nordeste 23 Este 0.2 -- -- 100
2021-01-09 22:00:00 2.7 8 Nordeste 40 Norte 0.4 -- -- 100
2021-01-09 21:00:00 2.8 10 Nordeste 40 Nordeste 0.6 -- -- 100
2021-01-09 20:00:00 2.4 5 Este 38 Oeste 1.8 -- -- 100
2021-01-09 19:00:00 2.4 5 Oeste 33 Nordeste 0.6 -- -- 100
2021-01-09 18:00:00 2.8 5 Este 30 Oeste 0.4 -- -- 99
2021-01-09 17:00:00 2.9 7 Noroeste 28 Oeste 1.4 -- -- 99
2021-01-09 16:00:00 3.3 8 Sudoeste 36 Sudoeste 0.4 -- -- 97
2021-01-09 15:00:00 3.4 6 Oeste 30 Sudoeste 0.8 -- -- 97
2021-01-09 14:00:00 3.7 8 Sur 35 Oeste 0.8 -- -- 95
2021-01-09 13:00:00 4.4 5 Noroeste 25 Sudoeste 0 -- -- 93
2021-01-09 12:00:00 3.7 6 Sudoeste 23 Sur 0.8 -- -- 97
2021-01-09 11:00:00 3.5 7 Sudoeste 19 Oeste 0.2 -- -- 100
2021-01-09 10:00:00 3.5 5 Sur 31 Norte 0.4 -- -- 96
2021-01-09 09:00:00 2.6 4 Sudoeste 26 Sudoeste 0.4 -- -- 98
2021-01-09 08:00:00 2.4 8 Sudoeste 37 Sudoeste 0.4 -- -- 98
2021-01-09 07:00:00 2.3 8 Sudoeste 31 Sudoeste 0 -- -- 100
2021-01-09 06:00:00 2.1 13 Sudoeste 35 Sudoeste 3 -- -- 99
2021-01-09 05:00:00 2.5 6 Sudoeste 31 Sudoeste 0.6 -- -- 100
2021-01-09 04:00:00 2.7 7 Oeste 31 Oeste 2.8 -- -- 99
2021-01-09 03:00:00 2.8 6 Sudoeste 24 Noroeste 0.4 -- -- 98
2021-01-09 02:00:00 2.9 9 Sudoeste 23 Noroeste 0 -- -- 98
2021-01-09 01:00:00 2.8 12 Oeste 30 Sudoeste 0 -- -- 100
2021-01-09 00:00:00 3.4 6 Sudoeste 27 Oeste 0.6 -- -- 100
2021-01-08 23:00:00 3.6 11 Sudoeste 28 Sudoeste 0.6 -- -- 100
2021-01-08 22:00:00 3.9 10 Sudoeste 33 Sudoeste 1 -- -- 100
2021-01-08 21:00:00 4 6 Oeste 40 Sudoeste 1.8 -- -- 100
2021-01-08 20:00:00 3.7 13 Sudoeste 32 Sudoeste 1.6 -- -- 100
2021-01-08 19:00:00 3.9 5 Sudoeste 34 Sudoeste 3 -- -- 100
2021-01-08 18:00:00 4.4 10 Sudoeste 35 Sudoeste 1.2 -- -- 100
2021-01-08 17:00:00 4.8 5 Sudoeste 35 Sudoeste 1.2 -- -- 100
2021-01-08 16:00:00 5 12 Sudoeste 40 Sudoeste 1 -- -- 100
2021-01-08 15:00:00 5.8 10 Sudoeste 25 Sudoeste 3.2 -- -- 100
2021-01-08 14:00:00 6.5 6 Sudoeste 25 Sur 4.2 -- -- 100
2021-01-08 13:00:00 6.8 8 Sudoeste 31 Sudoeste 2.4 -- -- 100
2021-01-08 12:00:00 6.8 14 Sudoeste 39 Sur 0.6 -- -- 100
2021-01-08 11:00:00 6.6 10 Sudoeste 36 Sudoeste 0.2 -- -- 100
2021-01-08 10:00:00 6.6 7 Sudoeste 49 Sudoeste 0.8 -- -- 100
2021-01-08 09:00:00 6.9 20 Sudoeste 39 Sudoeste 1.6 -- -- 100
2021-01-08 08:00:00 7.2 8 Sudoeste 42 Sudoeste 1.6 -- -- 100
2021-01-08 07:00:00 7.3 14 Sudoeste 57 Sudoeste 2.2 -- -- 100
2021-01-08 06:00:00 7.5 21 Sudoeste 64 Sudoeste 1 -- -- 100
2021-01-08 05:00:00 7.4 13 Sudoeste 66 Sudoeste 0.2 -- -- 100
2021-01-08 04:00:00 7.4 28 Sudoeste 74 Sudoeste 0 -- -- 100
2021-01-08 03:00:00 7.9 28 Sudoeste 86 Sudoeste 2.4 -- -- 100
2021-01-08 02:00:00 8.8 24 Sudoeste 77 Sudoeste 1 -- -- 100
2021-01-08 01:00:00 8.5 31 Sudoeste 93 Sudoeste 1.2 -- -- 100
2021-01-08 00:00:00 9.4 34 Sudoeste 79 Sudoeste 2 -- -- 100
2021-01-07 23:00:00 9.3 41 Sudoeste 87 Sudoeste 1.8 -- -- 100
2021-01-07 22:00:00 9.9 40 Sudoeste 80 Sudoeste 4.4 -- -- 100
2021-01-07 21:00:00 9.3 29 Sudoeste 103 Sudoeste 3.2 -- -- 100
2021-01-07 20:00:00 10.2 36 Sudoeste 95 Sudoeste 4.6 -- -- 100
2021-01-07 19:00:00 9.9 39 Sudoeste 93 Sudoeste 2.6 -- -- 100
2021-01-07 18:00:00 9.7 39 Sudoeste 102 Sudoeste 2 -- -- 100
2021-01-07 17:00:00 9.9 32 Sudoeste 91 Sudoeste 3.2 -- -- 100
2021-01-07 16:00:00 10.4 35 Sudoeste 100 Sudoeste 9.2 -- -- 100
2021-01-07 15:00:00 9.7 43 Sudoeste 111 Sudoeste 2.4 -- -- 100
2021-01-07 14:00:00 9.7 39 Sudoeste 96 Sudoeste 1.8 -- -- 100
2021-01-07 13:00:00 9.2 39 Sudoeste 96 Sudoeste 5 -- -- 100
2021-01-07 12:00:00 9.7 43 Sudoeste 104 Sudoeste 5.8 -- -- 100
2021-01-07 11:00:00 10.7 26 Sudoeste 83 Sudoeste 6.6 -- -- 100
2021-01-07 10:00:00 9.8 25 Sudoeste 80 Sudoeste 3.6 -- -- 100
2021-01-07 09:00:00 9.6 35 Sudoeste 77 Sudoeste 7.4 -- -- 100
2021-01-07 08:00:00 10.1 26 Sudoeste 88 Sudoeste 3.4 -- -- 100
2021-01-07 07:00:00 9.7 26 Sudoeste 68 Sudoeste 1.4 -- -- 100
2021-01-07 06:00:00 9.5 26 Sudoeste 65 Sudoeste 0.8 -- -- 100
2021-01-07 05:00:00 10.1 21 Sudoeste 62 Sudoeste 1.2 -- -- 100
2021-01-07 04:00:00 10.3 24 Sudoeste 72 Sudoeste 0.8 -- -- 100
2021-01-07 03:00:00 9.7 22 Sudoeste 64 Sudoeste 0.2 -- -- 100
2021-01-07 02:00:00 9.6 18 Sudoeste 53 Sudoeste 0.2 -- -- 100
2021-01-07 01:00:00 10.5 17 Sudoeste 49 Sudoeste 0.6 -- -- 100
2021-01-07 00:00:00 10.3 10 Sudoeste 44 Sudoeste 0.2 -- -- 100
2021-01-06 23:00:00 9.6 16 Sudoeste 41 Sudoeste 0 -- -- 100
2021-01-06 22:00:00 9.7 15 Sudoeste 50 Sudoeste 0 -- -- 100
2021-01-06 21:00:00 9.3 14 Sudoeste 42 Sudoeste 0 -- -- 100
2021-01-06 20:00:00 9.4 17 Sudoeste 50 Sudoeste 0 -- -- 100
2021-01-06 19:00:00 10.3 18 Sudoeste 64 Sudoeste 0 -- -- 100
2021-01-06 18:00:00 10 19 Sudoeste 68 Oeste 0 -- -- 100
2021-01-06 17:00:00 10.9 25 Sudoeste 73 Sudoeste 0.8 -- -- 100
2021-01-06 16:00:00 10.9 30 Sudoeste 91 Sudoeste 0.4 -- -- 100
2021-01-06 15:00:00 12 40 Sudoeste 92 Sudoeste 2 -- -- 100
2021-01-06 14:00:00 12 29 Sudoeste 90 Sudoeste 5.2 -- -- 100
2021-01-06 13:00:00 11.3 35 Sudoeste 85 Sudoeste 4.2 -- -- 100
2021-01-06 12:00:00 11.3 24 Sudoeste 90 Sudoeste 3 -- -- 100
2021-01-06 11:00:00 11.2 28 Sudoeste 85 Sudoeste 4.4 -- -- 100
2021-01-06 10:00:00 10.8 30 Sudoeste 81 Sudoeste 1 -- -- 100
2021-01-06 09:00:00 10.3 27 Sudoeste 92 Sudoeste 1.4 -- -- 100
2021-01-06 08:00:00 11 31 Sudoeste 90 Sudoeste 2.2 -- -- 100
2021-01-06 07:00:00 10.1 36 Sudoeste 89 Sudoeste 0.6 -- -- 100
2021-01-06 06:00:00 9.6 30 Sudoeste 76 Sudoeste 0 -- -- 100
2021-01-06 05:00:00 9.3 21 Sudoeste 71 Sudoeste 0 -- -- 100
2021-01-06 04:00:00 8.2 19 Sudoeste 57 Sudoeste 0.2 -- -- 100
2021-01-06 03:00:00 9.3 18 Sudoeste 63 Sudoeste 0.4 -- -- 100
2021-01-06 02:00:00 8.8 12 Sudoeste 40 Sudoeste 0.2 -- -- 100
2021-01-06 01:00:00 8.8 11 Sudoeste 44 Sudoeste 0.2 -- -- 100
2021-01-06 00:00:00 9 14 Sudoeste 32 Sudoeste 0 -- -- 100
2021-01-05 23:00:00 9.2 10 Sudoeste 34 Sudoeste 0 -- -- 100
2021-01-05 22:00:00 9.2 9 Sudoeste 38 Sur 0.2 -- -- 100
2021-01-05 21:00:00 9.4 16 Sudoeste 39 Sudoeste 0 -- -- 100
2021-01-05 20:00:00 9.8 9 Sudoeste 37 Sudoeste 0 -- -- 100
2021-01-05 19:00:00 9.9 13 Sudoeste 38 Sudoeste 0 -- -- 100
2021-01-05 18:00:00 10 12 Sudoeste 31 Sudoeste 0 -- -- 100
2021-01-05 17:00:00 9.9 16 Sudoeste 37 Sudoeste 0 -- -- 99
2021-01-05 16:00:00 10.3 12 Sudoeste 37 Sudoeste 0 -- -- 95
2021-01-05 15:00:00 10.5 15 Sudoeste 36 Sudoeste 0 -- -- 94
2021-01-05 14:00:00 10.9 18 Sudoeste 40 Sudoeste 0 -- -- 90
2021-01-05 13:00:00 11.1 18 Sudoeste 34 Sudoeste 0 -- -- 85
2021-01-05 12:00:00 10.9 18 Sudoeste 33 Sudoeste 0 -- -- 89
2021-01-05 11:00:00 9.8 21 Sudoeste 35 Sudoeste 0 -- -- 93
2021-01-05 10:00:00 9 18 Sudoeste 30 Sudoeste 0 -- -- 99
2021-01-05 09:00:00 8.7 16 Sudoeste 32 Sudoeste 0 -- -- 99
2021-01-05 08:00:00 8.3 21 Sudoeste 33 Sudoeste 0 -- -- 100
2021-01-05 07:00:00 8.5 18 Sudoeste 34 Sudoeste 0 -- -- 100
2021-01-05 06:00:00 8.6 19 Sudoeste 36 Sudoeste 0 -- -- 99
2021-01-05 05:00:00 8.2 12 Sudoeste 23 Sudoeste 0 -- -- 99
2021-01-05 04:00:00 8.1 12 Sudoeste 23 Sudoeste 0 -- -- 100
2021-01-05 03:00:00 8 13 Sudoeste 37 Sudoeste 0 -- -- 100
2021-01-05 02:00:00 8.3 18 Sudoeste 42 Sudoeste 0 -- -- 100
2021-01-05 01:00:00 9.1 12 Sudoeste 35 Sudoeste 0 -- -- 99
2021-01-05 00:00:00 10.1 16 Sudoeste 45 Sudoeste 0 -- -- 99
2021-01-04 23:00:00 9.8 14 Sudoeste 51 Sudoeste 0 -- -- 99
2021-01-04 22:00:00 9.2 27 Sudoeste 59 Sudoeste 0 -- -- 99
2021-01-04 21:00:00 9.6 24 Sudoeste 64 Sudoeste 0 -- -- 89
2021-01-04 20:00:00 10.4 23 Sudoeste 70 Sudoeste 0 -- -- 82
2021-01-04 19:00:00 10.7 23 Sudoeste 84 Sudoeste 0 -- -- 82
2021-01-04 18:00:00 11.1 18 Sudoeste 66 Oeste 0 -- -- 79
2021-01-04 17:00:00 11.3 22 Sudoeste 73 Sudoeste 0 -- -- 80
2021-01-04 16:00:00 11.5 20 Sudoeste 66 Sudoeste 0 -- -- 81
2021-01-04 15:00:00 10.9 22 Sudoeste 52 Sudoeste 0 -- -- 84
2021-01-04 14:00:00 12.3 12 Sudoeste 49 Sudoeste 0 -- -- 77
2021-01-04 13:00:00 12.9 10 Sudoeste 39 Sudoeste 0 -- -- 73
2021-01-04 12:00:00 13 17 Sudoeste 37 Sudoeste 0 -- -- 70
2021-01-04 11:00:00 12.5 14 Sudoeste 33 Sudoeste 0 -- -- 70
2021-01-04 10:00:00 10 8 Sudoeste 24 Sudoeste 0 -- -- 85
2021-01-04 09:00:00 8.9 11 Sudoeste 22 Oeste 0 -- -- 88
2021-01-04 08:00:00 9.1 15 Sudoeste 25 Sudoeste 0 -- -- 85
2021-01-04 07:00:00 8.1 14 Sudoeste 22 Oeste 0 -- -- 92
2021-01-04 06:00:00 7.8 8 Sudoeste 18 Oeste 0 -- -- 94
2021-01-04 05:00:00 7.4 6 Sudoeste 19 Sudoeste 0 -- -- 90
2021-01-04 04:00:00 7 12 Sudoeste 19 Sudoeste 0 -- -- 83
2021-01-04 03:00:00 7.7 14 Sudoeste 25 Sudoeste 0 -- -- 76
2021-01-04 02:00:00 8.2 5 Sudoeste 11 Oeste 0 -- -- 73
2021-01-04 01:00:00 8.3 6 Oeste 13 Sudoeste 0 -- -- 68
2021-01-04 00:00:00 7.3 6 Sudoeste 13 Sudoeste 0 -- -- 74
2021-01-03 23:00:00 7.8 4 Sudoeste 12 Sudoeste 0 -- -- 82
2021-01-03 22:00:00 6 3 Norte 10 Sudoeste 0 -- -- 100
2021-01-03 21:00:00 6.7 6 Sudoeste 15 Sudoeste 0 -- -- 100
2021-01-03 20:00:00 6.9 5 Sudoeste 12 Sudoeste 0 -- -- 100
2021-01-03 19:00:00 7.1 4 Sudoeste 12 Sudoeste 0 -- -- 100
2021-01-03 18:00:00 7.3 8 Sudoeste 13 Sudoeste 0 -- -- 99
2021-01-03 17:00:00 7.7 8 Sudoeste 19 Sudoeste 0 -- -- 95
2021-01-03 16:00:00 8.6 7 Sudoeste 13 Sudoeste 0 -- -- 88
2021-01-03 15:00:00 8.2 3 Sur 8 Sudoeste 0 -- -- 90
2021-01-03 14:00:00 7.4 3 Sudoeste 10 Sudoeste 0 -- -- 94
2021-01-03 13:00:00 6.9 6 Sudoeste 15 Sudoeste 0 -- -- 96
2021-01-03 12:00:00 6.2 0 Calma 6 Este 0 -- -- 100
2021-01-03 11:00:00 5.8 5 Sudoeste 13 Sudoeste 0 -- -- 99
2021-01-03 10:00:00 5.6 4 Sudoeste 12 Sudoeste 0 -- -- 100
2021-01-03 09:00:00 4.6 0 Calma 10 Sudoeste 0 -- -- 100
2021-01-03 08:00:00 4 0 Calma 11 Norte 0 -- -- 100
2021-01-03 07:00:00 4 6 Nordeste 15 Nordeste 0 -- -- 100
2021-01-03 06:00:00 3.2 3 Norte 12 Oeste 0 -- -- 100
2021-01-03 05:00:00 4 4 Nordeste 12 Norte 0 -- -- 100
2021-01-03 04:00:00 4.6 4 Nordeste 14 Norte 0 -- -- 100
2021-01-03 03:00:00 4.4 0 Calma 15 Nordeste 0 -- -- 100
2021-01-03 02:00:00 3.8 5 Nordeste 17 Nordeste 0 -- -- 100
2021-01-03 01:00:00 4.9 8 Nordeste 19 Nordeste 0 -- -- 100
2021-01-03 00:00:00 5 3 Nordeste 26 Nordeste 0 -- -- 100
2021-01-02 23:00:00 4.4 10 Nordeste 21 Nordeste 0 -- -- 100
2021-01-02 22:00:00 4.7 4 Nordeste 17 Nordeste 0 -- -- 100
2021-01-02 21:00:00 4.6 7 Nordeste 19 Nordeste 0 -- -- 100
2021-01-02 20:00:00 4.6 8 Nordeste 18 Norte 0 -- -- 100
2021-01-02 19:00:00 4.3 6 Nordeste 20 Nordeste 0 -- -- 100
2021-01-02 18:00:00 4.8 2 Nordeste 14 Nordeste 0 -- -- 100
2021-01-02 17:00:00 5.4 3 Este 10 Este 0 -- -- 100
2021-01-02 16:00:00 5.8 3 Nordeste 11 Este 0 -- -- 100
2021-01-02 15:00:00 5.9 0 Calma 10 Este 0 -- -- 100
2021-01-02 14:00:00 6.5 2 Nordeste 7 Este 0 -- -- 100
2021-01-02 13:00:00 5.7 3 Este 13 Nordeste 0 -- -- 100